Vorticity
nan nan nan nan nan nan nan nan nan nan nan nan nan nan nan nan nan nan nan nan nan nan nan nan nan nan nan nan nan nan nan nan nan nan nan nan nan nan nan nan nan nan nan nan
nan 15 13 14 15 10 7 8 8 8 10 25 22 8 10 8 6 7 9 7 8 9 8 9 10 8 8 10 9 10 10 9 11 8 11 11 10 11 10 11 10 8 10 nan
nan 12 11 16 18 15 15 14 15 10 11 19 16 10 11 12 9 8 9 9 9 9 9 9 9 9 9 9 10 9 10 10 10 10 10 10 10 11 10 10 10 10 10 nan
nan 13 15 13 13 12 13 11 12 9 9 19 25 19 16 11 13 12 10 9 8 9 10 9 9 10 9 9 10 9 9 10 10 9 10 10 10 10 10 10 9 9 8 nan
nan 9 10 9 20 19 10 6 18 19 20 24 19 12 15 18 15 13 11 9 10 10 9 9 9 10 10 9 8 8 8 9 8 10 10 10 10 9 10 10 9 8 8 nan
nan 7 10 12 18 13 11 13 9 19 31 26 6 2 17 20 14 11 10 10 10 9 8 7 8 11 9 9 9 8 7 10 9 9 9 9 9 10 10 10 10 9 7 nan
nan 6 6 17 11 6 7 10 8 18 25 15 0 18 29 13 10 9 10 11 9 8 9 6 8 10 9 9 7 7 8 9 9 9 9 9 10 9 10 10 9 9 9 nan
nan 12 10 15 13 9 8 11 12 19 19 13 14 22 13 10 8 10 10 7 6 8 10 10 9 7 8 8 8 9 10 8 8 9 9 9 9 9 10 10 10 8 9 nan
nan 11 12 7 7 12 9 11 14 18 16 14 12 10 10 9 8 8 8 7 9 9 9 9 9 8 8 9 9 8 8 8 9 9 9 9 8 10 10 10 9 9 9 nan
nan 4 8 12 6 4 10 14 17 16 14 11 12 10 8 8 8 8 6 9 12 10 8 9 9 9 10 10 8 7 7 8 7 8 8 10 11 10 9 11 11 9 9 nan
nan 8 11 14 14 13 12 13 15 15 12 12 10 9 8 8 8 9 9 9 8 9 9 9 9 9 10 9 7 8 8 8 10 7 8 10 7 8 12 11 9 11 11 nan
nan 16 12 10 21 24 12 12 12 11 11 11 10 9 9 9 10 10 10 9 10 9 10 9 9 10 9 10 10 9 9 7 8 9 10 9 11 11 7 6 5 6 8 nan
nan 11 13 15 18 18 14 14 13 10 11 10 10 11 11 9 12 10 11 10 9 10 9 6 8 11 11 10 9 9 11 12 9 9 8 9 9 9 13 12 6 6 4 nan
nan 12 12 11 16 16 15 14 12 12 11 11 11 10 10 10 11 10 11 11 11 9 8 8 8 7 7 9 10 10 8 8 9 10 9 10 9 9 9 7 11 17 10 nan
nan 7 11 18 17 15 14 12 10 9 10 11 10 11 10 11 8 10 10 11 10 9 9 9 8 9 9 8 7 7 7 7 9 8 8 8 11 11 10 10 10 10 16 nan
nan 11 15 15 14 13 11 9 9 9 10 10 10 10 10 10 11 11 11 11 10 11 10 10 11 11 10 9 8 8 6 9 11 11 11 9 9 10 10 10 10 11 10 nan
nan 13 12 13 13 12 9 9 11 11 10 10 11 11 11 10 10 11 10 7 9 13 13 12 9 11 12 11 8 8 12 12 8 8 11 10 9 11 10 10 10 10 13 nan
nan 14 17 15 15 12 11 11 12 11 12 13 10 7 12 16 13 11 11 10 9 10 10 10 11 10 10 10 8 9 10 10 11 9 10 11 9 9 11 10 11 10 14 nan
nan 15 16 17 17 13 13 13 14 12 9 13 15 11 9 11 14 14 11 9 8 10 12 12 12 8 8 9 8 7 10 10 10 11 10 10 13 9 9 10 9 10 11 nan
nan 15 17 17 16 15 10 11 14 13 13 12 10 11 10 9 11 12 10 8 6 11 18 16 9 8 10 11 8 7 11 11 10 10 10 8 9 12 11 12 11 10 10 nan
nan 12 13 12 12 15 16 14 12 11 10 10 11 10 10 11 10 10 8 10 13 13 12 12 9 9 12 13 10 8 11 12 11 11 11 11 10 11 10 10 12 12 10 nan
nan 13 12 11 11 11 11 12 12 13 12 9 10 12 13 11 10 7 6 11 19 15 6 10 12 10 12 13 8 11 11 10 10 11 12 12 11 11 11 11 11 11 11 nan
nan 14 13 13 13 11 10 10 11 13 12 12 12 10 9 9 11 10 15 16 11 13 9 12 14 14 10 8 11 11 11 11 10 10 11 11 12 12 11 11 10 11 12 nan
nan 12 11 12 13 12 11 11 11 10 11 11 12 12 10 9 10 12 11 17 20 9 9 12 16 14 9 7 10 10 11 11 11 11 12 12 11 11 11 11 11 10 11 nan
nan 12 13 12 11 10 12 13 10 11 11 11 13 12 10 10 10 14 15 9 13 11 12 14 15 12 8 10 10 11 11 11 11 13 12 11 11 11 10 11 11 10 10 nan
nan 11 10 9 13 15 14 12 11 12 12 13 11 13 13 13 12 11 12 13 13 12 11 14 14 12 10 11 12 11 11 11 12 11 10 11 11 11 11 10 12 14 14 nan
nan nan nan nan nan nan nan nan nan nan nan nan nan nan nan nan nan nan nan nan nan nan nan nan nan nan nan nan nan nan nan nan nan nan nan nan nan nan nan nan nan nan nan nan
CAPE
0 0 1 4 11 31 50 86 210 147 194 300 2 2 1 1 1 2 4 4 8 5 6 7 6 3 4 2 4 6 8 5 4 1 0 2 2 3 6 8 9 6 14 10
6 27 36 26 16 31 58 75 92 255 106 265 155 0 1 2 6 4 5 2 1 2 1 0 0 1 0 1 2 1 3 2 1 0 0 0 0 0 0 1 2 0 0 21
32 73 97 85 91 75 66 108 132 200 249 336 221 202 19 5 7 2 2 0 0 0 0 0 0 0 0 0 0 0 0 0 0 0 0 0 0 0 0 0 0 1 11 16
85 72 56 115 106 139 373 240 393 208 216 236 192 75 5 2 1 2 1 0 0 0 0 0 0 0 0 0 0 0 0 0 0 0 0 0 0 0 0 0 0 0 0 0
85 80 43 49 107 173 173 181 93 115 160 189 64 1 2 1 5 2 0 0 0 0 0 0 0 0 0 0 0 0 0 0 0 0 0 0 0 0 0 0 0 0 0 0
46 77 55 86 170 86 85 135 94 70 110 179 6 20 8 0 0 0 0 0 0 0 0 0 0 0 0 0 0 2 0 0 0 0 0 0 0 0 0 0 0 0 0 0
97 84 69 85 152 18 58 158 16 20 105 10 0 0 0 0 0 0 0 0 0 0 0 1 0 0 0 1 1 1 1 0 0 0 0 0 0 0 0 0 0 0 0 0
100 156 91 151 66 21 155 5 0 1 16 0 0 0 0 0 0 0 0 0 0 0 0 0 0 0 0 0 0 0 0 0 0 2 1 0 0 1 0 0 0 3 3 5
147 151 150 46 41 22 0 0 0 0 0 0 0 0 0 0 0 0 0 0 0 0 0 0 0 0 0 0 0 0 0 0 1 1 3 7 7 6 6 4 5 5 8 9
119 75 100 97 6 0 0 0 0 0 0 0 0 0 0 0 0 0 0 0 0 0 0 0 0 0 0 0 0 0 0 1 1 1 4 5 11 11 6 5 4 5 5 11
167 113 91 17 4 2 0 0 0 0 0 0 0 0 0 0 0 0 0 0 0 0 0 0 0 0 0 0 0 0 0 0 0 0 2 4 3 1 9 3 1 5 5 12
500 127 65 44 73 7 0 0 0 0 0 0 0 0 0 0 0 0 0 0 0 0 0 0 0 0 0 0 0 0 0 0 0 0 0 0 2 5 0 0 0 0 0 1
125 51 63 12 3 0 0 0 0 0 0 0 0 0 0 0 0 0 0 0 0 0 0 0 1 0 0 0 0 0 0 0 0 0 0 1 2 3 7 1 0 0 0 0
0 0 0 0 0 0 0 0 0 0 0 0 0 0 0 0 0 0 0 0 0 0 0 0 0 0 0 1 0 0 1 0 2 4 6 8 9 11 10 11 11 6 0 0
0 0 0 0 0 0 0 0 0 0 0 0 0 0 0 0 0 0 0 0 0 0 0 0 0 0 0 0 0 0 2 4 5 7 7 3 3 6 6 5 6 7 7 0
0 0 0 0 0 0 0 0 0 0 0 0 0 0 0 0 0 0 0 0 0 0 0 0 0 0 0 0 0 2 4 0 0 3 5 5 4 4 3 2 3 4 6 9
0 0 0 0 0 0 0 0 0 0 0 0 0 0 0 0 0 0 0 0 0 0 0 0 0 0 0 0 2 3 7 6 0 2 2 3 2 3 2 2 5 5 6 0
0 0 0 0 0 0 0 0 0 0 0 0 0 0 0 0 0 0 0 0 0 0 0 0 1 0 0 1 1 2 5 5 5 4 4 4 6 2 2 4 6 6 10 3
0 0 0 0 0 0 0 0 0 0 0 0 0 0 0 0 0 0 0 0 0 0 0 0 0 0 0 0 0 0 1 4 4 2 3 0 4 8 11 16 14 13 12 11
0 0 0 0 0 0 0 0 0 0 0 0 0 0 0 0 0 0 1 1 0 0 7 0 0 0 0 0 0 0 0 7 7 7 11 11 15 19 17 5 12 14 18 20
1 1 0 0 0 0 0 0 0 0 0 0 0 0 0 0 1 1 2 1 2 2 0 0 0 0 0 0 0 0 0 7 13 13 16 17 18 17 17 14 15 18 20 21
4 4 2 1 0 2 1 2 2 0 0 0 0 0 0 1 0 0 0 0 0 0 0 0 0 0 0 0 0 0 2 6 10 14 16 17 16 16 20 19 19 18 19 24
4 2 2 2 2 3 2 3 1 1 0 0 0 0 0 0 0 0 0 0 0 0 0 0 0 0 0 0 0 3 9 11 12 14 16 16 21 19 20 19 20 22 21 20
3 3 3 3 1 0 0 2 0 0 0 1 1 0 0 2 10 0 0 0 0 0 0 2 0 0 0 3 4 12 14 17 14 17 15 9 18 17 16 21 19 21 18 17
3 3 2 1 0 1 2 2 0 0 0 0 0 0 0 0 9 6 0 1 0 0 2 0 1 0 3 5 11 14 17 15 16 22 18 16 16 18 23 21 25 23 23 23
2 2 3 1 0 1 1 0 0 1 0 3 5 7 5 3 0 0 3 3 2 0 2 9 8 7 6 7 11 14 14 12 14 9 8 12 15 14 16 17 21 24 31 36
0 0 0 0 0 0 0 0 1 3 0 5 8 7 5 4 7 5 4 9 7 7 4 11 9 4 6 10 12 13 12 13 10 14 18 17 19 20 26 35 42 23 10 6